Regional Weather Roundup
Issued by NWS

Home | Current Version | Previous Version | Graphics & Text | Print | Product List | Glossary On
Versions: 1 2 3 4 5 6 7 8 9 10 11 12 13 14 15 16 17 18 19 20 21 22 23 24 25 26 27 28 29 30 31 32 33 34 35 36 37 38 39 40 41 42 43 44 45 46 47 48 49 50
000
ASUS43 KBIS 151910
RWRND

NORTH DAKOTA REGIONAL WEATHER ROUNDUP
NATIONAL WEATHER SERVICE BISMARCK ND
100 PM CST SUN JAN 15 2017

NOTE: "FAIR" INDICATES FEW OR NO CLOUDS BELOW 12,000 FEET WITH NO
SIGNIFICANT WEATHER AND/OR OBSTRUCTIONS TO VISIBILITY.


NDZ001>003-009>011-017-152000-
NORTHWEST NORTH DAKOTA

CITY           SKY/WX    TMP DP  RH WIND       PRES   REMARKS
WILLISTON      FAIR      15   4  61 SW8       30.02F WCI   4
MINOT          FAIR      23   9  55 SW23      29.99F WCI   7
$$

NDZ018>021-031>035-040>046-152000-
SOUTHWEST NORTH DAKOTA

CITY           SKY/WX    TMP DP  RH WIND       PRES   REMARKS
BISMARCK       FAIR       8  -1  66 E3        30.08F
DICKINSON      FAIR      22  11  62 W12       29.99F WCI  10
GARRISON         N/A     12   5  73 S5        30.02F WCI   4
HETTINGER ARPT CLOUDY    22  10  60 CALM      30.05F
$$

NDZ004>008-012>016-024-026-027-054-152000-
NORTHEAST NORTH DAKOTA

CITY           SKY/WX    TMP DP  RH WIND       PRES   REMARKS
GRAND FORKS    MOSUNNY   13   5  70 S9        30.08F WCI   1
GRND FRKS AFB  SUNNY     18   7  60 SW9       30.06F WCI   7
DEVILS LAKE    FAIR      16   8  71 SW8       30.03F WCI   5
$$

NDZ022-023-025-028>030-036>039-047>053-152000-
SOUTHEAST NORTH DAKOTA

CITY           SKY/WX    TMP DP  RH WIND       PRES   REMARKS
FARGO          SUNNY     19  13  77 S12       30.13F WCI   7
JAMESTOWN      FAIR      22  10  60 W9        30.07F WCI  12
$$





USA.gov is the U.S. government's official web portal to all federal, state and local government web resources and services.